Location: Unspecified
(50.7693°N, 0.0000°E)
Time: 00:27:13
(UTC+00:00)

SR - Pass Details

Date: 02 July 2019
Orbit: 580 x 876 km, 66.7° (Epoch: 22 July)

Event Time Altitude Azimuth Distance (km) Brightness Sun altitude
Rises 10:15:22 0° 318° (NW) 3,041 ? 55.2°
Reaches altitude 10° 10:17:42 10° 311° (NW) 2,168 ? 55.5°
Maximum altitude 10:22:19 41° 242° (WSW) 1,074 ? 56.0°
Drops below altitude 10° 10:27:18 10° 174° (S) 2,339 ? 56.5°
Sets 10:29:55 0° 167° (SSE) 3,310 ? 56.8°
